Optus D2

operational
NORAD ID: 32252 Int'l Des: 2007-044 Owner: OPTS Country: AU
HEOCIRCULAR

About Optus D2

Description loading...

Live Position

Loading 3D Globe...

Upcoming Passes

Altitude History

Altitude vs Time

uPlot chart will show altitude changes over time

Two-Line Element Set

1 32252U 07044A 26050.20647965 .00000103 00000-0 00000+0 0 9994
2 32252 1.7712 83.5433 0003630 239.7811 128.7804 0.99340856 67370
Epoch: Feb 19, 2026 • Age: 5 hours

Current Status

Altitude 36062.6 km
Velocity 3.06 km/s
Sub-Earth Point 1.79°N, 132.13°W
Launch Date Oct 5, 2007
Age 18.3 years
Type other

Technical Details

Classification Payload
Mass 2350.00 kg
Dry Mass 1079.00 kg
Total Mass 2350.00 kg
Length 4.20 m
Diameter 2.30 m
Span 22.40 m
Shape Box + 2 Pan
Manufacturer OSCD
Bus Type OSC Star 2.4
Phase Status In Orbit
Owner/State OPTS/AU

Large Constellations

Loading constellations...